Location: Fornova de Taro
(44.7000°N, 10.1000°E)
Time: 19:56:12
(UTC+00:00)

Cosmos 1892 Rocket - Pass Details

Date: 26 May 2022
Orbit: 604 x 634 km, 82.5° (Epoch: 02 July)

Event Time Altitude Azimuth Distance (km) Brightness Sun altitude
Exits shadow 03:04:49 - 207° (SSW) 2,426 6.0 -6.2°
Reaches altitude 10° 03:05:55 10° 211° (SSW) 2,004 5.6 -6.0°
Maximum altitude 03:10:09 43° 284° (WNW) 890 4.1 -5.4°
Drops below altitude 10° 03:14:27 10° 356° (N) 2,028 6.7 -4.8°
Sets 03:16:48 0° 3° (N) 2,941 7.7 -4.5°
